This is the latest recevied weather packets stored in our database for station/object LU8FJH-13. If no packets are shown the sender has not sent any weather packets the latest 10 day(s).
| Time | Temp. | Humidity | Pressure | Rain* | Wind** | Luminosity | Snow |
|---|---|---|---|---|---|---|---|
| 1777478450 | 22.22° C | 48% | 1012.8 hPa | 0 mm | - | - | - |
| 1777477910 | 22.22° C | 48% | 1012.7 hPa | 0 mm | - | - | - |
| 1777477370 | 22.22° C | 48% | 1012.9 hPa | 0 mm | - | - | - |
| 1777476830 | 22.22° C | 49% | 1013 hPa | 0 mm | - | - | - |
| 1777464641 | 14.44° C | 67% | 1013.4 hPa | 0 mm | - | - | - |
| 1777464102 | 14.44° C | 68% | 1013.2 hPa | 0 mm | - | - | - |
| 1777463561 | 13.89° C | 70% | 1012.9 hPa | 0 mm | - | - | - |
| 1777463021 | 13.33° C | 72% | 1012.7 hPa | 0 mm | - | - | - |
| 1777462482 | 13.33° C | 71% | 1012.7 hPa | 0 mm | - | - | - |
| 1777461941 | 13.33° C | 72% | 1013 hPa | 0 mm | - | - | - |
| 1777461402 | 12.78° C | 71% | 1013 hPa | 0 mm | - | - | - |
| 1777460861 | 12.78° C | 71% | 1013 hPa | 0 mm | - | - | - |
| 1777460321 | 12.78° C | 70% | 1012.8 hPa | 0 mm | - | - | - |
| 1777459782 | 12.78° C | 70% | 1013.2 hPa | 0 mm | - | - | - |
| 1777459241 | 12.78° C | 70% | 1013.4 hPa | 0 mm | - | - | - |
| 1777458702 | 12.78° C | 69% | 1013.2 hPa | 0 mm | - | - | - |
| 1777458161 | 12.78° C | 69% | 1012.9 hPa | 0 mm | - | - | - |
| 1777457621 | 12.78° C | 69% | 1012.4 hPa | 0 mm | - | - | - |
| 1777457081 | 13.33° C | 69% | 1011.7 hPa | 0 mm | - | - | - |
| 1777456541 | 13.33° C | 68% | 1011.4 hPa | 0 mm | - | - | - |
| 1777456001 | 13.33° C | 68% | 1011.2 hPa | 0 mm | - | - | - |
| 1777455461 | 13.33° C | 67% | 1011.4 hPa | 0 mm | - | - | - |
| 1777454921 | 13.33° C | 67% | 1011.1 hPa | 0 mm | - | - | - |
| 1777454381 | 13.33° C | 66% | 1011 hPa | 0 mm | - | - | - |
| 1777453841 | 13.33° C | 66% | 1010.9 hPa | 0 mm | - | - | - |
* Rain latest hour (hover to see other rain measurements)
** Current wind speed in m/s (hover to see current wind gust speed)